User: anonymous   Login
Location: Unspecified
(0.0000°N, 0.0000°E)
Time: 01:06:00
(UTC+00:00)
Language:

S-56A Canister/Altair - Orbit

View from above orbital plane
View from above orbital plane
View from above satellite
View from above satellite

Ground track
Ground track

The orbit data is extracted from the following two-line orbital elements,

1    82U 61004B   19196.85683642 +.00000068 +00000-0 +79398-4 0  9993
2    82 038.8664 008.4184 1175682 254.2324 092.5855 12.26042539766371
Epoch (UTC): 15 July 2019 20:33:50
Eccentricity: 0.1175682
inclination: 38.8664°
perigee height: 632 km
apogee height: 2500 km
right ascension of ascending node: 8.4184°
argument of perigee: 254.2324°
revolutions per day: 12.26042539
mean anomaly at epoch: 92.5855°
orbit number at epoch: 76637

The dashed part of the orbit path shows where the satellite is in the earth's shadow,  

DLR